GSAT-6 (40880 NORAD) Tracking and Keplerian Element Data

This shows tracking and keplerian element data for the satellite.

Feedback or suggestion? Click here.




ElementValue
Catalog40880
NameGSAT-6
Epoch Orbit3217
Epoch Day158.99557792
Epoch Year2024
RAAN332.1506
Inclination0.0067
Eccentricity0.0002845
Argument of Perigee124.7985
Mean Anonmoly239.8099
Mean Motion1.00269744
Decay Rate-1.59E-06
L11 40880U 15041A 24158.99557792 -.00000159 00000+0 00000+0 0 9998
L22 40880 0.0067 332.1506 0002845 124.7985 239.8099 1.00269744 32176



Live tracking and technical data element details for GSAT-6 (NORAD 40880). GSAT-6 can be tracked NOW for your location showing map with azimuth and elevation plus other details from your city location.







IsCatalogInMostPopularTable: catalog: 40880, numindb: 636
Update: records affected: 1



GetName: 40880 GSAT-6

Hit Count: updated at: Mon, 17 Jun 2024 22:39:47 GMT